When you browse on this site, cookies collect data to enhance your experience and personalize the content and advertising you see.
Visit our Privacy Policy to learn more. By continuing to use the site, you agree to this use of cookies and data.
  • In Austria
  • List of Countries
  • For 7 days
  • Water Temperature
  • Weather Map
  • News
  • Weather Widgets
  • user-avatar
    Login

    Hourly Weather Novka

    Today, 3 June, Wednesday

    Time Temperature Precipitation Wind Pressure Humidity
    00:00 +9°C° 0.1 mm 3 mps 743 mmHg 86%
    01:00 +9°C° 0.1 mm 3 mps 743 mmHg 89%
    02:00 +8°C° 0.1 mm 3 mps 743 mmHg 92%
    03:00 +8°C° 0 mm 3 mps 742 mmHg 93%
    04:00 +9°C° 0 mm 3 mps 742 mmHg 94%
    05:00 +9°C° 0 mm 2 mps 742 mmHg 94%
    06:00 +9°C° 0 mm 2 mps 742 mmHg 92%
    07:00 +10°C° 0 mm 2 mps 742 mmHg 90%
    08:00 +12°C° 0 mm 2 mps 742 mmHg 87%
    09:00 +12°C° 0 mm 2 mps 742 mmHg 86%
    10:00 +13°C° 0 mm 2 mps 742 mmHg 84%
    11:00 +12°C° 0 mm 3 mps 742 mmHg 82%
    12:00 +13°C° 0 mm 3 mps 742 mmHg 82%
    13:00 +13°C° 0 mm 3 mps 742 mmHg 82%
    14:00 +13°C° 0 mm 3 mps 741 mmHg 82%
    15:00 +13°C° 0 mm 3 mps 741 mmHg 80%
    16:00 +14°C° 0 mm 3 mps 741 mmHg 78%
    17:00 +14°C° 0 mm 3 mps 740 mmHg 76%
    18:00 +14°C° 0 mm 2 mps 740 mmHg 82%
    19:00 +12°C° 0 mm 2 mps 740 mmHg 89%
    20:00 +11°C° 0 mm 1 mps 740 mmHg 95%
    21:00 +10°C° 0 mm 1 mps 740 mmHg 96%
    22:00 +10°C° 0 mm 1 mps 739 mmHg 97%
    23:00 +9°C° 0 mm 1 mps 739 mmHg 98%

    Tomorrow, 4 June, Thursday

    Time Temperature Precipitation Wind Pressure Humidity
    00:00 +8°C° 0 mm 1 mps 739 mmHg 98%
    01:00 +7°C° 0 mm 0 mps 738 mmHg 98%
    02:00 +7°C° 0 mm 0 mps 738 mmHg 98%
    03:00 +7°C° 0 mm 0 mps 738 mmHg 97%
    04:00 +8°C° 0 mm 0 mps 738 mmHg 97%
    05:00 +8°C° 0 mm 0 mps 737 mmHg 96%
    06:00 +11°C° 0 mm 1 mps 738 mmHg 89%
    07:00 +14°C° 0 mm 1 mps 738 mmHg 81%
    08:00 +16°C° 0 mm 1 mps 738 mmHg 73%
    09:00 +17°C° 0 mm 2 mps 738 mmHg 67%
    10:00 +18°C° 0 mm 2 mps 738 mmHg 61%
    11:00 +19°C° 0 mm 3 mps 737 mmHg 55%
    12:00 +18°C° 0.2 mm 3 mps 738 mmHg 57%
    13:00 +18°C° 0.2 mm 3 mps 738 mmHg 60%
    14:00 +18°C° 0.2 mm 4 mps 738 mmHg 62%
    15:00 +17°C° 0.1 mm 4 mps 738 mmHg 64%
    16:00 +17°C° 0.1 mm 3 mps 737 mmHg 66%
    17:00 +17°C° 0.1 mm 3 mps 737 mmHg 68%
    18:00 +14°C° 0.3 mm 3 mps 737 mmHg 76%
    19:00 +14°C° 0.3 mm 2 mps 737 mmHg 84%
    20:00 +13°C° 0.3 mm 2 mps 737 mmHg 93%
    21:00 +12°C° 0 mm 2 mps 737 mmHg 94%
    22:00 +10°C° 0 mm 2 mps 737 mmHg 96%
    23:00 +10°C° 0 mm 2 mps 737 mmHg 97%

    Day after tomorrow, 5 June, Friday

    Time Temperature Precipitation Wind Pressure Humidity
    00:00 +9°C° 0 mm 2 mps 737 mmHg 97%
    01:00 +9°C° 0 mm 2 mps 737 mmHg 97%
    02:00 +8°C° 0 mm 2 mps 737 mmHg 97%
    03:00 +8°C° 0 mm 2 mps 737 mmHg 97%
    04:00 +9°C° 0 mm 2 mps 737 mmHg 97%
    05:00 +9°C° 0 mm 2 mps 737 mmHg 96%
    06:00 +11°C° 0 mm 3 mps 737 mmHg 92%
    07:00 +12°C° 0 mm 3 mps 737 mmHg 87%
    08:00 +14°C° 0 mm 3 mps 738 mmHg 82%
    09:00 +16°C° 0.3 mm 3 mps 738 mmHg 77%
    10:00 +17°C° 0.3 mm 4 mps 737 mmHg 71%
    11:00 +18°C° 0.3 mm 4 mps 737 mmHg 66%
    12:00 +19°C° 0.2 mm 4 mps 737 mmHg 62%
    13:00 +20°C° 0.2 mm 3 mps 737 mmHg 57%
    14:00 +20°C° 0.2 mm 3 mps 737 mmHg 53%
    15:00 +20°C° 0.1 mm 3 mps 738 mmHg 55%
    16:00 +20°C° 0.1 mm 3 mps 738 mmHg 57%
    17:00 +20°C° 0.1 mm 3 mps 738 mmHg 59%
    18:00 +19°C° 0 mm 3 mps 738 mmHg 69%
    19:00 +17°C° 0 mm 3 mps 738 mmHg 79%
    20:00 +16°C° 0 mm 2 mps 738 mmHg 88%
    21:00 +14°C° 0 mm 3 mps 738 mmHg 91%
    22:00 +14°C° 0 mm 3 mps 738 mmHg 94%
    23:00 +13°C° 0 mm 3 mps 738 mmHg 97%

    6 June, Saturday

    Time Temperature Precipitation Wind Pressure Humidity
    00:00 +13°C° 0.1 mm 3 mps 738 mmHg 97%
    01:00 +14°C° 0.1 mm 3 mps 738 mmHg 97%
    02:00 +14°C° 0.1 mm 4 mps 738 mmHg 97%
    03:00 +14°C° 0.1 mm 3 mps 738 mmHg 97%
    04:00 +16°C° 0.1 mm 3 mps 738 mmHg 96%
    05:00 +16°C° 0.1 mm 3 mps 738 mmHg 96%
    06:00 +17°C° 0 mm 4 mps 738 mmHg 93%
    07:00 +18°C° 0 mm 4 mps 738 mmHg 89%
    08:00 +19°C° 0 mm 5 mps 738 mmHg 85%
    09:00 +20°C° 0.1 mm 5 mps 738 mmHg 83%
    10:00 +20°C° 0.1 mm 5 mps 739 mmHg 81%
    11:00 +21°C° 0.1 mm 5 mps 739 mmHg 78%
    12:00 +21°C° 0.4 mm 5 mps 740 mmHg 79%
    13:00 +21°C° 0.4 mm 5 mps 740 mmHg 79%
    14:00 +21°C° 0.4 mm 5 mps 741 mmHg 80%
    15:00 +21°C° 0.1 mm 4 mps 741 mmHg 73%
    16:00 +22°C° 0.1 mm 4 mps 742 mmHg 65%
    17:00 +22°C° 0.1 mm 4 mps 742 mmHg 58%
    18:00 +21°C° 0 mm 3 mps 743 mmHg 66%
    19:00 +19°C° 0 mm 2 mps 743 mmHg 74%
    20:00 +17°C° 0 mm 2 mps 744 mmHg 82%
    21:00 +16°C° 0 mm 2 mps 744 mmHg 86%
    22:00 +15°C° 0 mm 2 mps 745 mmHg 90%
    23:00 +14°C° 0 mm 2 mps 746 mmHg 94%

    7 June, Sunday

    Time Temperature Precipitation Wind Pressure Humidity
    00:00 +14°C° 0 mm 1 mps 746 mmHg 95%
    01:00 +13°C° 0 mm 1 mps 747 mmHg 95%
    02:00 +13°C° 0 mm 1 mps 747 mmHg 96%
    03:00 +13°C° 0 mm 1 mps 747 mmHg 95%
    04:00 +14°C° 0 mm 1 mps 748 mmHg 94%
    05:00 +14°C° 0 mm 2 mps 748 mmHg 93%
    06:00 +16°C° 0 mm 2 mps 748 mmHg 85%
    07:00 +18°C° 0 mm 2 mps 749 mmHg 77%
    08:00 +20°C° 0 mm 2 mps 749 mmHg 69%
    09:00 +23°C° 0 mm 2 mps 749 mmHg 63%
    10:00 +24°C° 0 mm 2 mps 750 mmHg 57%
    11:00 +25°C° 0 mm 2 mps 750 mmHg 52%
    12:00 +26°C° 0 mm 3 mps 749 mmHg 50%
    13:00 +26°C° 0 mm 3 mps 749 mmHg 48%
    14:00 +27°C° 0 mm 3 mps 749 mmHg 47%
    15:00 +26°C° 0 mm 3 mps 749 mmHg 51%
    16:00 +26°C° 0 mm 3 mps 749 mmHg 55%
    17:00 +26°C° 0 mm 3 mps 748 mmHg 59%
    18:00 +24°C° 0.2 mm 3 mps 748 mmHg 69%
    19:00 +22°C° 0.2 mm 3 mps 748 mmHg 79%
    20:00 +20°C° 0.2 mm 2 mps 748 mmHg 89%
    21:00 +20°C° 0.1 mm 3 mps 748 mmHg 92%
    22:00 +19°C° 0.1 mm 3 mps 748 mmHg 94%
    23:00 +19°C° 0.1 mm 3 mps 748 mmHg 96%

    8 June, Monday

    Time Temperature Precipitation Wind Pressure Humidity
    00:00 +18°C° 0 mm 3 mps 748 mmHg 96%
    01:00 +18°C° 0 mm 3 mps 748 mmHg 97%
    02:00 +17°C° 0 mm 2 mps 748 mmHg 97%
    03:00 +17°C° 0 mm 2 mps 748 mmHg 96%
    04:00 +17°C° 0 mm 3 mps 748 mmHg 96%
    05:00 +18°C° 0 mm 3 mps 748 mmHg 95%
    06:00 +19°C° 0 mm 3 mps 749 mmHg 89%
    07:00 +21°C° 0 mm 3 mps 749 mmHg 83%
    08:00 +24°C° 0 mm 3 mps 749 mmHg 77%
    09:00 +25°C° 0 mm 3 mps 749 mmHg 69%
    10:00 +26°C° 0 mm 3 mps 749 mmHg 61%
    11:00 +28°C° 0 mm 4 mps 749 mmHg 54%
    12:00 +28°C° 0 mm 4 mps 749 mmHg 52%
    13:00 +29°C° 0 mm 4 mps 749 mmHg 51%
    14:00 +29°C° 0 mm 4 mps 749 mmHg 50%
    15:00 +29°C° 0 mm 3 mps 749 mmHg 53%
    16:00 +28°C° 0 mm 3 mps 749 mmHg 57%
    17:00 +28°C° 0 mm 3 mps 749 mmHg 61%
    18:00 +26°C° 0 mm 2 mps 749 mmHg 69%
    19:00 +24°C° 0 mm 2 mps 749 mmHg 78%
    20:00 +21°C° 0 mm 2 mps 749 mmHg 86%
    21:00 +21°C° 0 mm 2 mps 749 mmHg 88%
    22:00 +20°C° 0 mm 2 mps 749 mmHg 91%
    23:00 +19°C° 0 mm 2 mps 749 mmHg 93%
    Show more